Home > Time Zones > World Clock > Weather > Italy > Genoa > Past weeks

Flag for Italy Weather past 2 weeks in Genoa, Italy

Now
54 °F

Partly cloudy.


Feels Like: 52 °F
Forecast: 47 / 65 °F
Wind: 7 mph from East

Location: Genova / Sestri

Current Time: Mar 2, 2015 at 4:57:20 AM

Latest Report: Mar 2, 2015 at 4:20 AM


Visibility: N/A

Pressure: 29.89 "Hg

Humidity: 88%

Dew point: 50 °F

Location of GenoaLocation

Historic Weather in Genoa — Graph

°F

Genoa temperature yesterday

Maximum temperature yesterday: 57 °F (at 11:20 AM)
Minimum temperature yesterday: 46 °F (at 2:20 AM)
Average temperature yesterday: 52 °F

Past Weeks' High & Low Weather Summary

 TemperatureHumidityPressure
High59 °F (Feb 25, 3:20 PM)100% (Feb 21, 8:50 PM)30.54 "Hg (Feb 21, 8:50 PM)
Low39 °F (Feb 15, 5:20 AM)20% (Feb 25, 5:50 PM)29.47 "Hg (Feb 22, 2:20 AM)
Average50 °F61%29.97 "Hg
* Reported Feb 15 3:50 AM — Mar 2 3:50 AM, Genoa, Weather by CustomWeather, © 2015

Note: Actual official high and low records may vary slightly from our data, if they occured in-between our weather recording intervals... More about our weather records

Advertising

Genoa weather history for previous 24 hours

 ConditionsComfort  
Time TempWeatherWind HumidityBarometerVisibility
3:50 AM
Mon, Mar 2
54 °FPartly cloudy.13 mph88%29.89 "HgN/A
3:20 AM52 °FPartly cloudy.16 mph94%29.92 "Hg3 mi
2:20 AM52 °FPartly cloudy.16 mph94%29.92 "Hg3 mi
1:50 AM52 °FPartly cloudy.16 mph94%29.95 "Hg3 mi
1:20 AM52 °FPartly cloudy.17 mph94%29.98 "Hg3 mi
12:50 AM52 °FLight rain. Partly cloudy.17 mph94%29.95 "Hg4 mi
12:20 AM52 °FLight rain. Partly cloudy.22 mph100%29.98 "Hg4 mi
11:50 PM
Sun, Mar 1
54 °FPartly cloudy.23 mph94%29.98 "HgN/A
11:20 PM54 °FPartly cloudy.13 mph100%29.98 "HgN/A
10:50 PM54 °FPartly cloudy.12 mph100%30.01 "HgN/A
10:20 PM54 °FPartly cloudy.13 mph100%30.01 "HgN/A
9:50 PM54 °FPartly cloudy.15 mph100%30.01 "HgN/A
9:20 PM54 °FPartly cloudy.17 mph94%30.01 "Hg3 mi
8:50 PM54 °FLight rain. Partly cloudy.15 mph94%30.01 "HgN/A
8:20 PM54 °FLight rain. Partly cloudy.8 mph94%30.01 "HgN/A
7:50 PM54 °FLight rain. Partly cloudy.16 mph94%30.01 "HgN/A
7:20 PM54 °FLight rain. Partly cloudy.20 mph94%30.01 "HgN/A
6:50 PM54 °FLight rain. Partly cloudy.21 mph94%30.01 "HgN/A
6:20 PM54 °FLight rain. Partly cloudy.16 mph88%30.01 "HgN/A
5:50 PM54 °FBroken clouds.14 mph88%30.01 "HgN/A
5:20 PM54 °FPartly sunny.9 mph77%30.01 "HgN/A
4:50 PM55 °FScattered clouds.10 mph72%30.01 "HgN/A
4:20 PM55 °FScattered clouds.8 mph72%30.01 "HgN/A
3:50 PM57 °FScattered clouds.10 mph67%30.04 "HgN/A
3:20 PM57 °FScattered clouds.12 mph63%30.04 "HgN/A
2:50 PM57 °FScattered clouds.14 mph55%30.04 "HgN/A
2:20 PM57 °FScattered clouds.14 mph72%30.04 "HgN/A
1:50 PM55 °FBroken clouds.9 mph72%30.04 "HgN/A
1:20 PM55 °FPartly sunny.8 mph72%30.04 "HgN/A
12:50 PM57 °FPartly sunny.9 mph67%30.07 "HgN/A
12:20 PM57 °FScattered clouds.9 mph67%30.07 "HgN/A
11:50 AM55 °FScattered clouds.6 mph72%30.07 "HgN/A
11:20 AM57 °FScattered clouds.9 mph67%30.07 "HgN/A
10:50 AM55 °FScattered clouds.7 mph72%30.07 "HgN/A
10:20 AM55 °FScattered clouds.10 mph67%30.07 "HgN/A
9:50 AM54 °FPartly sunny.16 mph72%30.07 "HgN/A
9:20 AM52 °FPartly sunny.9 mph67%30.07 "HgN/A
8:50 AM50 °FPartly sunny.7 mph62%30.04 "HgN/A
8:20 AM48 °FBroken clouds.5 mph66%30.04 "HgN/A
7:50 AM46 °FScattered clouds.6 mph71%30.04 "HgN/A
7:20 AM46 °FScattered clouds.6 mph66%30.04 "HgN/A
6:50 AM46 °FPassing clouds.6 mph66%30.04 "HgN/A
6:20 AM46 °FClear.6 mph66%30.07 "Hg10 mi
5:50 AM46 °FClear.6 mph66%30.04 "Hg10 mi
5:20 AM46 °FClear.6 mph66%30.04 "Hg10 mi
4:50 AM48 °FPassing clouds.5 mph62%30.04 "HgN/A
4:20 AM48 °FPassing clouds.3 mph62%30.04 "HgN/A
Weather by CustomWeather, © 2015

See weather overviewHow to use our weather pages